sat.trackr.live / text

‹ back to catalog

STARLINK-34076

NORAD 63915 · 2025-095AB

PAYLOAD ACTIVE UNKNOWN

§ Identity

Operator
Country
US
Launch date
2025-05-10
Launch site
AFETR
Launch vehicle
Mass (kg)
RCS (m²)

Purposes: comms

External: N2YO · Heavens-Above · Gunter

§ Orbital elements

Epoch: 2026-09-20T02:47:13.754688Z

Period
94.27 min
Inclination
43.0057°
Eccentricity
0.0003012
Mean motion
15.27586998 rev/d
Perigee alt
481.0 km
Apogee alt
485.1 km
Semi-major
6,861.2 km
B*
5.1735e-4
RAAN
158.1166°
Arg perigee
245.5843°
Mean anomaly
114.4695°
Rev number
7,751

§ Raw data

STARLINK-340761 63915U 25095AB  26263.11613142  .00014005  00000+0  51735-3 0  99962 63915  43.0057 158.1166 0003012 245.5843 114.4695 15.27586998 77510

JSON: /api/v1/satellites/63915 · /tle

For live sub-satellite position, see the globe view (requires WebGL).

§ Visibility from observer

Set your observer location to see the next 7 days of passes ≥ 10°. The values pass through the URL so the page stays shareable.

No JS? Fill the form by hand. The geolocation button needs JavaScript.